Time,TemperatureF,DewpointF,PressureIn,WindDirection,WindDirectionDegrees,WindSpeedMPH,WindSpeedGustMPH,Humidity,HourlyPrecipIn,Conditions,Clouds,dailyrainin,SoftwareType,DateUTC
2013-04-28 10:00:00,22.0,-0.4,30.18,SSE,158,0.7,0.7,37,0.00,,,0.00,WUHU216HW,2013-04-28 18:00:00,
2013-04-28 10:05:00,20.5,-0.5,30.18,SSE,158,1.1,1.1,39,0.00,,,0.00,WUHU216HW,2013-04-28 18:05:00,
2013-04-28 10:10:00,21.2,1.2,30.18,WSW,248,1.3,1.3,41,0.00,,,0.00,WUHU216HW,2013-04-28 18:10:00,
2013-04-28 10:15:00,22.0,1.4,30.17,South,180,1.1,1.3,40,0.00,,,0.00,WUHU216HW,2013-04-28 18:15:00,
2013-04-28 10:20:00,22.1,0.9,30.17,SE,135,0.4,1.6,39,0.00,,,0.00,WUHU216HW,2013-04-28 18:20:00,
2013-04-28 10:25:00,21.6,-1.4,30.17,ESE,113,1.6,1.6,36,0.00,,,0.00,WUHU216HW,2013-04-28 18:25:00,
2013-04-28 10:30:00,21.4,-0.4,30.17,SE,135,0.2,1.6,38,0.00,,,0.00,WUHU216HW,2013-04-28 18:30:00,
2013-04-28 10:35:00,22.7,-0.4,30.17,ESE,113,1.8,1.8,36,0.00,,,0.00,WUHU216HW,2013-04-28 18:35:00,
2013-04-28 10:40:00,22.0,-1.1,30.17,SSE,158,0.7,1.8,36,0.00,,,0.00,WUHU216HW,2013-04-28 18:40:00,
2013-04-28 10:45:00,22.0,-1.7,30.17,SE,135,1.2,1.8,35,0.00,,,0.00,WUHU216HW,2013-04-28 18:45:00,
2013-04-28 10:50:00,22.7,-0.4,30.17,SSE,158,1.1,1.8,36,0.00,,,0.00,WUHU216HW,2013-04-28 18:50:00,
2013-04-28 10:55:00,22.9,-0.9,30.17,SSE,158,1.6,1.8,35,0.00,,,0.00,WUHU216HW,2013-04-28 18:55:00,
2013-04-28 11:00:00,22.7,-1.6,30.17,ESE,113,1.8,1.8,34,0.00,,,0.00,WUHU216HW,2013-04-28 19:00:00,
2013-04-28 11:05:00,23.0,-0.1,30.17,South,180,0.4,1.8,36,0.00,,,0.00,WUHU216HW,2013-04-28 19:05:00,
2013-04-28 11:10:00,23.6,0.4,30.17,SSE,158,0.0,0.7,36,0.00,,,0.00,WUHU216HW,2013-04-28 19:10:00,
2013-04-28 11:15:00,24.1,0.9,30.16,North,0,0.4,0.9,36,0.00,,,0.00,WUHU216HW,2013-04-28 19:15:00,
2013-04-28 11:20:00,24.1,-1.0,30.16,SSE,158,1.8,1.8,33,0.00,,,0.00,WUHU216HW,2013-04-28 19:20:00,
2013-04-28 11:25:00,24.1,0.3,30.16,SE,135,0.9,1.8,35,0.00,,,0.00,WUHU216HW,2013-04-28 19:25:00,
2013-04-28 11:30:00,25.2,1.2,30.16,South,175,1.2,1.3,35,0.00,,,0.00,WUHU216HW,2013-04-28 19:30:00,
2013-04-28 11:35:00,25.0,0.5,30.16,North,0,0.6,1.3,34,0.00,,,0.00,WUHU216HW,2013-04-28 19:35:00,
2013-04-28 11:40:00,25.7,1.6,30.16,NNE,23,0.0,0.7,35,0.00,,,0.00,WUHU216HW,2013-04-28 19:40:00,
2013-04-28 11:45:00,26.3,0.3,30.16,ESE,113,1.1,1.8,32,0.00,,,0.00,WUHU216HW,2013-04-28 19:45:00,
2013-04-28 11:50:00,26.1,0.1,30.16,SE,135,1.1,1.8,32,0.00,,,0.00,WUHU216HW,2013-04-28 19:50:00,
2013-04-28 11:55:00,27.4,3.7,30.16,NW,315,0.2,1.3,36,0.00,,,0.00,WUHU216HW,2013-04-28 19:55:00,
2013-04-28 12:00:00,28.4,4.1,30.16,South,180,0.3,1.1,35,0.00,,,0.00,WUHU216HW,2013-04-28 20:00:00,
2013-04-28 12:05:00,29.2,4.7,30.16,SW,233,0.3,0.9,35,0.00,,,0.00,WUHU216HW,2013-04-28 20:05:00,
2013-04-28 12:10:00,30.2,3.8,30.16,WSW,248,0.2,1.1,32,0.00,,,0.00,WUHU216HW,2013-04-28 20:10:00,
2013-04-28 12:15:00,31.3,4.2,30.16,West,270,0.7,1.1,31,0.00,,,0.00,WUHU216HW,2013-04-28 20:15:00,
2013-04-28 12:20:00,30.8,1.3,30.16,ESE,113,0.2,1.6,28,0.00,,,0.00,WUHU216HW,2013-04-28 20:20:00,
2013-04-28 12:25:00,30.8,0.5,30.16,East,82,1.2,1.6,27,0.00,,,0.00,WUHU216HW,2013-04-28 20:25:00,
2013-04-28 12:30:00,29.5,0.2,30.16,SSE,158,1.8,1.8,28,0.00,,,0.00,WUHU216HW,2013-04-28 20:30:00,
2013-04-28 12:35:00,29.2,1.5,30.16,NNE,23,1.1,2.9,30,0.00,,,0.00,WUHU216HW,2013-04-28 20:35:00,
2013-04-28 12:40:00,30.1,2.3,30.16,NNE,19,0.8,2.9,30,0.00,,,0.00,WUHU216HW,2013-04-28 20:40:00,
2013-04-28 12:45:00,30.4,2.7,30.16,South,174,0.8,1.1,30,0.00,,,0.00,WUHU216HW,2013-04-28 20:45:00,
2013-04-28 12:50:00,30.6,2.9,30.16,SSE,158,1.1,1.1,30,0.00,,,0.00,WUHU216HW,2013-04-28 20:50:00,
2013-04-28 12:55:00,29.9,1.4,30.15,SW,225,1.3,2.2,29,0.00,,,0.00,WUHU216HW,2013-04-28 20:55:00,
2013-04-28 13:00:00,28.8,1.3,30.15,WSW,248,0.7,2.2,30,0.00,,,0.00,WUHU216HW,2013-04-28 21:00:00,
2013-04-28 13:05:00,28.4,0.9,30.15,SSW,203,0.9,1.6,30,0.00,,,0.00,WUHU216HW,2013-04-28 21:05:00,
2013-04-28 13:10:00,28.6,0.2,30.15,SW,221,1.9,3.4,29,0.00,,,0.00,WUHU216HW,2013-04-28 21:10:00,
2013-04-28 13:15:00,30.1,3.0,30.15,North,354,1.5,3.4,31,0.00,,,0.00,WUHU216HW,2013-04-28 21:15:00,
2013-04-28 13:20:00,31.0,3.2,30.15,WSW,250,1.0,2.9,30,0.00,,,0.00,WUHU216HW,2013-04-28 21:20:00,
2013-04-28 13:25:00,32.0,4.1,30.14,SSW,208,0.9,2.9,30,0.00,,,0.00,WUHU216HW,2013-04-28 21:25:00,
2013-04-28 13:30:00,32.4,4.5,30.14,West,270,1.8,2.2,30,0.00,,,0.00,WUHU216HW,2013-04-28 21:30:00,
2013-04-28 13:35:00,31.3,3.5,30.14,SE,135,2.7,3.1,30,0.00,,,0.00,WUHU216HW,2013-04-28 21:35:00,
2013-04-28 13:40:00,30.4,2.7,30.14,SE,135,1.3,3.1,30,0.00,,,0.00,WUHU216HW,2013-04-28 21:40:00,
2013-04-28 13:45:00,30.2,3.2,30.14,South,180,1.4,1.8,31,0.00,,,0.00,WUHU216HW,2013-04-28 21:45:00,
2013-04-28 13:50:00,30.8,4.2,30.14,SE,143,0.6,3.4,32,0.00,,,0.00,WUHU216HW,2013-04-28 21:50:00,
2013-04-28 13:55:00,32.8,6.0,30.14,SSE,158,0.9,3.4,32,0.00,,,0.00,WUHU216HW,2013-04-28 21:55:00,
2013-04-28 14:00:00,33.3,6.0,30.14,SSW,203,1.3,1.6,31,0.00,,,0.00,WUHU216HW,2013-04-28 22:00:00,
2013-04-28 14:05:00,32.0,4.8,30.13,SW,233,0.6,2.0,31,0.00,,,0.00,WUHU216HW,2013-04-28 22:05:00,
2013-04-28 14:10:00,31.7,5.0,30.13,NNW,338,2.9,2.9,32,0.00,,,0.00,WUHU216HW,2013-04-28 22:10:00,
2013-04-28 14:15:00,31.1,4.6,30.13,NW,315,2.2,2.9,32,0.00,,,0.00,WUHU216HW,2013-04-28 22:15:00,
2013-04-28 14:20:00,31.0,4.4,30.13,WSW,248,3.1,3.1,32,0.00,,,0.00,WUHU216HW,2013-04-28 22:20:00,
2013-04-28 14:25:00,32.8,7.9,30.13,WSW,256,0.9,3.1,35,0.00,,,0.00,WUHU216HW,2013-04-28 22:25:00,
2013-04-28 14:30:00,33.7,6.8,30.13,SW,225,1.8,2.7,32,0.00,,,0.00,WUHU216HW,2013-04-28 22:30:00,
2013-04-28 14:35:00,34.9,7.3,30.13,WSW,248,3.4,3.4,31,0.00,,,0.00,WUHU216HW,2013-04-28 22:35:00,
2013-04-28 14:40:00,35.3,6.9,30.13,North,2,0.8,3.4,30,0.00,,,0.00,WUHU216HW,2013-04-28 22:40:00,
2013-04-28 14:45:00,34.2,6.7,30.13,SSE,158,0.9,2.7,31,0.00,,,0.00,WUHU216HW,2013-04-28 22:45:00,
2013-04-28 14:50:00,33.7,6.8,30.13,South,188,0.8,1.3,32,0.00,,,0.00,WUHU216HW,2013-04-28 22:50:00,
2013-04-28 14:55:00,33.1,6.4,30.13,ENE,68,0.7,1.3,32,0.00,,,0.00,WUHU216HW,2013-04-28 22:55:00,
2013-04-28 15:00:00,32.6,6.5,30.13,SW,225,2.2,2.2,33,0.00,,,0.00,WUHU216HW,2013-04-28 23:00:00,
2013-04-28 15:05:00,32.6,7.1,30.12,SW,225,1.8,2.2,34,0.00,,,0.00,WUHU216HW,2013-04-28 23:05:00,
2013-04-28 15:10:00,32.6,6.5,30.12,NW,310,2.5,3.4,33,0.00,,,0.00,WUHU216HW,2013-04-28 23:10:00,
2013-04-28 15:15:00,32.6,7.7,30.12,NW,315,1.1,3.4,35,0.00,,,0.00,WUHU216HW,2013-04-28 23:15:00,
2013-04-28 15:20:00,32.6,7.7,30.12,NW,320,0.8,2.7,35,0.00,,,0.00,WUHU216HW,2013-04-28 23:20:00,
2013-04-28 15:25:00,32.8,8.6,30.12,SSW,211,1.5,2.7,36,0.00,,,0.00,WUHU216HW,2013-04-28 23:25:00,
2013-04-28 15:30:00,32.9,8.7,30.12,South,180,1.6,2.5,36,0.00,,,0.00,WUHU216HW,2013-04-28 23:30:00,
2013-04-28 15:35:00,32.9,8.1,30.12,WNW,302,1.1,2.5,35,0.00,,,0.00,WUHU216HW,2013-04-28 23:35:00,
2013-04-28 15:40:00,33.3,9.1,30.12,SW,220,0.8,2.5,36,0.00,,,0.00,WUHU216HW,2013-04-28 23:40:00,
2013-04-28 15:45:00,33.7,10.0,30.11,WSW,240,1.3,1.8,37,0.00,,,0.00,WUHU216HW,2013-04-28 23:45:00,
2013-04-28 15:50:00,33.5,9.8,30.11,SSE,158,1.6,4.0,37,0.00,,,0.00,WUHU216HW,2013-04-28 23:50:00,
2013-04-28 15:55:00,33.5,10.4,30.11,West,273,1.7,4.0,38,0.00,,,0.00,WUHU216HW,2013-04-28 23:55:00,
2013-04-28 16:00:00,33.5,10.4,30.11,ESE,113,1.1,2.0,38,0.00,,,0.00,WUHU216HW,2013-04-29 00:00:00,
2013-04-28 16:05:00,34.0,11.0,30.11,SSW,203,1.6,2.5,38,0.00,,,0.00,WUHU216HW,2013-04-29 00:05:00,
2013-04-28 16:10:00,34.6,10.2,30.11,ESE,113,2.2,2.5,36,0.00,,,0.00,WUHU216HW,2013-04-29 00:10:00,
2013-04-28 16:15:00,35.3,12.1,30.11,WSW,248,1.1,2.2,38,0.00,,,0.00,WUHU216HW,2013-04-29 00:15:00,
2013-04-28 16:20:00,36.4,11.7,30.11,WSW,248,3.4,3.4,36,0.00,,,0.00,WUHU216HW,2013-04-29 00:20:00,
2013-04-28 16:25:00,36.0,11.4,30.11,SSE,158,1.1,3.4,36,0.00,,,0.00,WUHU216HW,2013-04-29 00:25:00,
2013-04-28 16:30:00,35.5,10.9,30.10,SSW,203,0.4,2.7,36,0.00,,,0.00,WUHU216HW,2013-04-29 00:30:00,
2013-04-28 16:35:00,35.1,11.9,30.10,NW,312,1.8,2.7,38,0.00,,,0.00,WUHU216HW,2013-04-29 00:35:00,
2013-04-28 16:40:00,34.6,11.4,30.10,North,0,0.4,2.0,38,0.00,,,0.00,WUHU216HW,2013-04-29 00:40:00,
2013-04-28 16:45:00,34.7,12.3,30.10,SSE,158,1.0,2.0,39,0.00,,,0.00,WUHU216HW,2013-04-29 00:45:00,
2013-04-28 16:50:00,35.5,12.9,30.10,NW,306,1.0,1.6,39,0.00,,,0.00,WUHU216HW,2013-04-29 00:50:00,
2013-04-28 16:55:00,36.0,12.7,30.10,South,180,1.1,2.0,38,0.00,,,0.00,WUHU216HW,2013-04-29 00:55:00,
2013-04-28 17:00:00,36.2,12.9,30.09,SW,225,1.6,2.0,38,0.00,,,0.00,WUHU216HW,2013-04-29 01:00:00,
2013-04-28 17:05:00,36.2,12.3,30.09,SSW,203,0.6,1.8,37,0.00,,,0.00,WUHU216HW,2013-04-29 01:05:00,
2013-04-28 17:10:00,36.0,12.1,30.09,North,0,1.9,2.5,37,0.00,,,0.00,WUHU216HW,2013-04-29 01:10:00,
2013-04-28 17:15:00,35.6,11.7,30.09,SSW,203,1.6,2.5,37,0.00,,,0.00,WUHU216HW,2013-04-29 01:15:00,
2013-04-28 17:20:00,36.2,12.9,30.09,SE,135,1.8,1.8,38,0.00,,,0.00,WUHU216HW,2013-04-29 01:20:00,
2013-04-28 17:25:00,36.7,12.7,30.09,NW,315,1.8,1.8,37,0.00,,,0.00,WUHU216HW,2013-04-29 01:25:00,
2013-04-28 17:30:00,37.3,13.2,30.09,NNW,338,1.9,3.1,37,0.00,,,0.00,WUHU216HW,2013-04-29 01:30:00,
2013-04-28 17:35:00,37.4,13.3,30.09,SW,225,2.9,3.1,37,0.00,,,0.00,WUHU216HW,2013-04-29 01:35:00,
2013-04-28 17:40:00,37.8,14.3,30.09,SW,217,1.1,2.9,38,0.00,,,0.00,WUHU216HW,2013-04-29 01:40:00,
2013-04-28 17:45:00,38.2,14.1,30.09,ESE,113,0.4,1.8,37,0.00,,,0.00,WUHU216HW,2013-04-29 01:45:00,
2013-04-28 17:50:00,38.0,13.9,30.09,South,185,1.5,1.8,37,0.00,,,0.00,WUHU216HW,2013-04-29 01:50:00,
2013-04-28 17:55:00,37.8,13.7,30.09,SW,225,1.1,1.8,37,0.00,,,0.00,WUHU216HW,2013-04-29 01:55:00,
2013-04-28 18:00:00,37.4,14.1,30.09,WSW,248,1.8,1.8,38,0.00,,,0.00,WUHU216HW,2013-04-29 02:00:00,
2013-04-28 18:05:00,37.4,14.1,30.09,North,0,1.1,1.8,38,0.00,,,0.00,WUHU216HW,2013-04-29 02:05:00,
2013-04-28 18:10:00,37.1,13.7,30.09,SSE,158,0.4,1.6,38,0.00,,,0.00,WUHU216HW,2013-04-29 02:10:00,
2013-04-28 18:15:00,37.1,14.9,30.09,SE,135,0.4,1.6,40,0.00,,,0.00,WUHU216HW,2013-04-29 02:15:00,
2013-04-28 18:20:00,36.9,15.3,30.09,WSW,248,0.2,0.9,41,0.00,,,0.00,WUHU216HW,2013-04-29 02:20:00,
2013-04-28 18:25:00,36.7,14.7,30.09,SW,225,0.9,2.0,40,0.00,,,0.00,WUHU216HW,2013-04-29 02:25:00,
2013-04-28 18:30:00,36.9,14.9,30.09,SSW,203,1.8,2.2,40,0.00,,,0.00,WUHU216HW,2013-04-29 02:30:00,
2013-04-28 18:35:00,36.9,14.9,30.09,SW,231,0.8,2.2,40,0.00,,,0.00,WUHU216HW,2013-04-29 02:35:00,
2013-04-28 18:40:00,37.3,15.7,30.09,WSW,248,0.8,1.1,41,0.00,,,0.00,WUHU216HW,2013-04-29 02:40:00,
2013-04-28 18:44:00,37.1,15.5,30.09,WSW,248,1.1,2.7,41,0.00,,,0.00,WUHU216HW,2013-04-29 02:44:00,
2013-04-28 18:49:00,36.7,15.2,30.09,WNW,293,0.4,3.4,41,0.00,,,0.00,WUHU216HW,2013-04-29 02:49:00,
2013-04-28 18:54:00,36.5,14.5,30.09,WSW,248,1.1,3.4,40,0.00,,,0.00,WUHU216HW,2013-04-29 02:54:00,
2013-04-28 18:59:00,36.7,14.7,30.09,WNW,293,0.0,1.3,40,0.00,,,0.00,WUHU216HW,2013-04-29 02:59:00,
2013-04-28 19:04:00,36.9,15.8,30.09,WSW,248,0.4,1.3,42,0.00,,,0.00,WUHU216HW,2013-04-29 03:04:00,
2013-04-28 19:09:00,36.7,15.2,30.09,SSW,203,0.8,1.1,41,0.00,,,0.00,WUHU216HW,2013-04-29 03:09:00,
2013-04-28 19:14:00,36.7,15.2,30.09,ENE,68,1.5,2.7,41,0.00,,,0.00,WUHU216HW,2013-04-29 03:14:00,
2013-04-28 19:19:00,36.7,15.2,30.09,SW,225,0.9,2.7,41,0.00,,,0.00,WUHU216HW,2013-04-29 03:19:00,
2013-04-28 19:24:00,36.7,14.7,30.09,WSW,248,1.8,2.0,40,0.00,,,0.00,WUHU216HW,2013-04-29 03:24:00,
2013-04-28 19:29:00,36.7,15.2,30.09,West,270,0.2,1.8,41,0.00,,,0.00,WUHU216HW,2013-04-29 03:29:00,
2013-04-28 19:34:00,36.7,15.2,30.09,SW,225,0.0,1.1,41,0.00,,,0.00,WUHU216HW,2013-04-29 03:34:00,
2013-04-28 19:39:00,36.9,16.4,30.09,SSE,158,0.4,1.1,43,0.00,,,0.00,WUHU216HW,2013-04-29 03:39:00,
2013-04-28 19:44:00,36.9,16.4,30.09,SSE,158,0.4,0.4,43,0.00,,,0.00,WUHU216HW,2013-04-29 03:44:00,
2013-04-28 20:00:00,36.2,15.8,30.09,SE,135,0.2,0.2,43,0.00,,,0.00,WUHU216HW,2013-04-29 04:00:00,
2013-04-28 20:01:00,36.2,15.8,30.09,SE,135,0.2,0.2,43,0.00,,,0.00,WUHU216HW,2013-04-29 04:01:00,
2013-04-28 20:06:00,35.8,14.9,30.08,SW,225,0.0,0.7,42,0.00,,,0.00,WUHU216HW,2013-04-29 04:06:00,
2013-04-28 20:11:00,35.6,15.8,30.09,NNW,338,0.0,1.3,44,0.00,,,0.00,WUHU216HW,2013-04-29 04:11:00,
2013-04-28 20:16:00,35.5,15.6,30.08,WSW,254,0.6,1.6,44,0.00,,,0.00,WUHU216HW,2013-04-29 04:16:00,
2013-04-28 20:21:00,35.3,15.4,30.09,South,180,0.4,1.6,44,0.00,,,0.00,WUHU216HW,2013-04-29 04:21:00,
2013-04-28 20:26:00,35.1,15.8,30.09,SW,225,0.4,0.7,45,0.00,,,0.00,WUHU216HW,2013-04-29 04:26:00,
2013-04-28 20:31:00,34.9,15.6,30.09,South,180,0.0,0.7,45,0.00,,,0.00,WUHU216HW,2013-04-29 04:31:00,
2013-04-28 20:36:00,34.9,15.6,30.09,SSW,203,0.0,2.7,45,0.00,,,0.00,WUHU216HW,2013-04-29 04:36:00,
2013-04-28 20:41:00,34.6,15.3,30.09,SW,225,0.4,2.7,45,0.00,,,0.00,WUHU216HW,2013-04-29 04:41:00,
2013-04-28 20:46:00,34.6,15.3,30.09,SSE,158,1.6,1.6,45,0.00,,,0.00,WUHU216HW,2013-04-29 04:46:00,
2013-04-28 20:51:00,34.4,15.1,30.09,SSW,210,0.3,1.6,45,0.00,,,0.00,WUHU216HW,2013-04-29 04:51:00,
2013-04-28 20:56:00,34.2,15.4,30.09,SSW,203,0.2,1.6,46,0.00,,,0.00,WUHU216HW,2013-04-29 04:56:00,
2013-04-28 21:01:00,34.0,15.3,30.09,SW,225,1.6,1.6,46,0.00,,,0.00,WUHU216HW,2013-04-29 05:01:00,
2013-04-28 21:06:00,33.8,15.6,30.09,ESE,113,0.7,1.6,47,0.00,,,0.00,WUHU216HW,2013-04-29 05:06:00,
2013-04-28 21:11:00,33.5,15.3,30.09,WSW,248,0.4,0.7,47,0.00,,,0.00,WUHU216HW,2013-04-29 05:11:00,
2013-04-28 21:16:00,33.5,15.3,30.09,West,270,1.0,1.6,47,0.00,,,0.00,WUHU216HW,2013-04-29 05:16:00,
2013-04-28 21:21:00,33.3,15.1,30.09,WSW,248,0.2,1.6,47,0.00,,,0.00,WUHU216HW,2013-04-29 05:21:00,
2013-04-28 21:26:00,33.1,15.5,30.09,SSW,203,1.1,1.1,48,0.00,,,0.00,WUHU216HW,2013-04-29 05:26:00,
2013-04-28 21:31:00,32.9,15.8,30.09,South,180,0.2,1.1,49,0.00,,,0.00,WUHU216HW,2013-04-29 05:31:00,
2013-04-28 21:36:00,32.8,15.7,30.09,SSW,203,0.2,1.1,49,0.00,,,0.00,WUHU216HW,2013-04-29 05:36:00,
2013-04-28 21:41:00,32.6,15.9,30.10,SE,135,0.7,1.1,50,0.00,,,0.00,WUHU216HW,2013-04-29 05:41:00,
2013-04-28 21:46:00,32.6,15.5,30.10,SW,225,1.3,1.3,49,0.00,,,0.00,WUHU216HW,2013-04-29 05:46:00,
2013-04-28 21:51:00,32.4,15.3,30.10,SW,225,0.4,1.3,49,0.00,,,0.00,WUHU216HW,2013-04-29 05:51:00,
2013-04-28 21:56:00,32.4,15.9,30.10,SSE,158,0.4,1.1,50,0.00,,,0.00,WUHU216HW,2013-04-29 05:56:00,
2013-04-28 22:01:00,32.2,15.1,30.10,SW,225,0.7,1.1,49,0.00,,,0.00,WUHU216HW,2013-04-29 06:01:00,
2013-04-28 22:06:00,32.0,15.9,30.10,WSW,248,0.7,1.1,51,0.00,,,0.00,WUHU216HW,2013-04-29 06:06:00,
2013-04-28 22:11:00,31.9,15.8,30.10,West,270,0.0,1.1,51,0.00,,,0.00,WUHU216HW,2013-04-29 06:11:00,
2013-04-28 22:16:00,31.5,15.0,30.11,SW,225,0.4,0.7,50,0.00,,,0.00,WUHU216HW,2013-04-29 06:16:00,
2013-04-28 22:21:00,31.3,15.3,30.10,WSW,248,0.0,0.7,51,0.00,,,0.00,WUHU216HW,2013-04-29 06:21:00,
2013-04-28 22:26:00,31.0,15.0,30.11,SE,135,0.0,0.0,51,0.00,,,0.00,WUHU216HW,2013-04-29 06:26:00,
2013-04-28 22:31:00,30.8,15.2,30.11,ESE,113,0.0,0.0,52,0.00,,,0.00,WUHU216HW,2013-04-29 06:31:00,
2013-04-28 22:36:00,30.6,15.0,30.11,NNW,338,0.0,0.0,52,0.00,,,0.00,WUHU216HW,2013-04-29 06:36:00,
2013-04-28 22:37:00,30.4,14.9,30.11,SSE,158,0.0,0.0,52,0.00,,,0.00,WUHU216HW,2013-04-29 06:37:00,
2013-04-28 22:39:00,30.2,14.7,30.11,SSW,203,0.4,0.4,52,0.00,,,0.00,WUHU216HW,2013-04-29 06:39:00,
2013-04-28 22:40:00,30.2,14.7,30.11,SSW,203,0.0,0.4,52,0.00,,,0.00,WUHU216HW,2013-04-29 06:40:00,
2013-04-28 22:41:00,30.2,14.7,30.11,SSW,203,0.0,0.4,52,0.00,,,0.00,WUHU216HW,2013-04-29 06:41:00,
2013-04-28 22:46:00,30.1,14.5,30.11,SE,135,0.0,0.4,52,0.00,,,0.00,WUHU216HW,2013-04-29 06:46:00,
2013-04-28 22:51:00,29.9,15.2,30.11,West,270,1.1,1.1,54,0.00,,,0.00,WUHU216HW,2013-04-29 06:51:00,
2013-04-28 22:56:00,29.9,15.2,30.11,SSW,203,0.0,1.1,54,0.00,,,0.00,WUHU216HW,2013-04-29 06:56:00,
2013-04-28 23:01:00,29.9,15.6,30.11,SSW,203,0.2,1.3,55,0.00,,,0.00,WUHU216HW,2013-04-29 07:01:00,
2013-04-28 23:06:00,29.9,16.0,30.11,SE,135,0.4,1.3,56,0.00,,,0.00,WUHU216HW,2013-04-29 07:06:00,
2013-04-28 23:11:00,29.7,15.8,30.11,WSW,248,0.2,0.4,56,0.00,,,0.00,WUHU216HW,2013-04-29 07:11:00,
2013-04-28 23:16:00,29.5,15.7,30.11,SSE,158,0.4,0.4,56,0.00,,,0.00,WUHU216HW,2013-04-29 07:16:00,
2013-04-28 23:21:00,29.5,16.1,30.11,ESE,113,0.0,0.4,57,0.00,,,0.00,WUHU216HW,2013-04-29 07:21:00,
2013-04-28 23:26:00,29.5,15.7,30.11,NW,315,0.2,0.2,56,0.00,,,0.00,WUHU216HW,2013-04-29 07:26:00,
2013-04-28 23:31:00,29.3,15.6,30.11,SW,225,0.9,0.9,56,0.00,,,0.00,WUHU216HW,2013-04-29 07:31:00,
2013-04-28 23:36:00,29.2,15.4,30.11,WSW,248,1.6,1.6,56,0.00,,,0.00,WUHU216HW,2013-04-29 07:36:00,
2013-04-28 23:41:00,29.3,15.6,30.11,SSW,203,0.0,1.6,56,0.00,,,0.00,WUHU216HW,2013-04-29 07:41:00,
2013-04-28 23:46:00,29.2,15.8,30.11,SSE,158,0.0,0.9,57,0.00,,,0.00,WUHU216HW,2013-04-29 07:46:00,
2013-04-28 23:51:00,29.2,15.4,30.11,SSE,158,0.7,0.7,56,0.00,,,0.00,WUHU216HW,2013-04-29 07:51:00,
2013-04-28 23:56:00,29.2,15.4,30.11,WSW,248,1.3,1.3,56,0.00,,,0.00,WUHU216HW,2013-04-29 07:56:00,